This is the latest recevied weather packets stored in our database for station/object KE5QKR. If no packets are shown the sender has not sent any weather packets the latest 10 day(s).
| Time | Temp. | Humidity | Pressure | Rain* | Wind** | Luminosity | Snow |
|---|---|---|---|---|---|---|---|
| 1777667562 | 15.56° C | 99% | 1010.3 hPa | 0 mm | - | 18 W/m² | - |
| 1777667259 | 15.56° C | 99% | 1010.3 hPa | 0 mm | - | 10 W/m² | - |
| 1777666956 | 15.56° C | 99% | 1010.2 hPa | 0 mm | - | 32 W/m² | - |
| 1777666350 | 15.56° C | 99% | 1009.4 hPa | 0 mm | - | 35 W/m² | - |
| 1777666047 | 15.56° C | 99% | 1010.1 hPa | 0 mm | - | 23 W/m² | - |
| 1777665744 | 16.11° C | 99% | 1010.1 hPa | 0 mm | - | 3 W/m² | - |
| 1777665441 | 15.56° C | 99% | 1009.3 hPa | 0 mm | - | 35 W/m² | - |
| 1777665137 | 16.11° C | 99% | 1009.2 hPa | 0 mm | - | 38 W/m² | - |
| 1777664529 | 16.11° C | 99% | 1009.7 hPa | 0 mm | - | 3 W/m² | - |
| 1777664225 | 16.11° C | 98% | 1008.5 hPa | 0 mm | - | 16 W/m² | - |
| 1777663621 | 16.67° C | 96% | 1008.3 hPa | 0 mm | - | 18 W/m² | - |
| 1777663318 | 16.67° C | 94% | 1008.3 hPa | 0 mm | - | 44 W/m² | - |
| 1777663015 | 16.67° C | 94% | 1008.6 hPa | 0 mm | - | 46 W/m² | - |
| 1777662713 | 16.67° C | 95% | 1008.9 hPa | 0 mm | - | 41 W/m² | - |
| 1777661496 | 16.67° C | 95% | 1009.1 hPa | 0 mm | - | 67 W/m² | - |
| 1777661193 | 17.22° C | 95% | 1009.5 hPa | 0 mm | - | 77 W/m² | - |
| 1777660584 | 17.22° C | 96% | 1009.8 hPa | 0 mm | - | 265 W/m² | - |
| 1777660281 | 17.22° C | 97% | 1009.7 hPa | 0 mm | - | 202 W/m² | - |
| 1777659978 | 17.22° C | 97% | 1009.7 hPa | 0 mm | - | 227 W/m² | - |
| 1777659674 | 17.22° C | 96% | 1009.9 hPa | 1.27 mm | - | 225 W/m² | - |
| 1777659372 | 17.22° C | 97% | 1009.9 hPa | 1.27 mm | - | 281 W/m² | - |
| 1777659068 | 17.22° C | 96% | 1010.7 hPa | 0 mm | - | 154 W/m² | - |
| 1777658767 | 17.22° C | 96% | 1011 hPa | 0 mm | - | 118 W/m² | - |
| 1777658462 | 17.22° C | 96% | 1010.8 hPa | 0 mm | - | 126 W/m² | - |
| 1777657856 | 17.22° C | 96% | 1010.8 hPa | 0 mm | - | 217 W/m² | - |
* Rain latest hour (hover to see other rain measurements)
** Current wind speed in m/s (hover to see current wind gust speed)